{"data":{"norad_id":56298,"epoch":"2026-09-20T03:53:19.310784Z","epoch_age_seconds":138014,"freshness":"FRESH","line1":"1 56298U 23056N   26263.16202906  .00000003  00000+0  96182-5 0  9994","line2":"2 56298  43.0014 190.4275 0000648 278.7805  81.2974 15.27582637189844","mean_motion":15.27582637,"eccentricity":6.48e-5,"inclination_deg":43.0014,"raan_deg":190.4275,"arg_perigee_deg":278.7805,"mean_anomaly_deg":81.2974,"bstar":9.6182e-6,"rev_number":18984,"period_min":94.26658598503,"perigee_km":482.596595577,"apogee_km":483.48580427171,"semimajor_km":6861.1781999244,"source":"CELESTRAK","updated_at":"2026-09-21T09:00:33.393516Z"}}